AFL3107 UKFF-LOWI

Flight info

Callsign AFL3107
Flight time 2h 32m
Altitude 36000
Route NITOK N190 ODESE L140 SURAP P133 KIV M860 INROG DCT POBED DCT LONLA/N0454F360 DCT RIGSA DCT GELKA DCT ERGOM DCT MAREG DCT NANIT NANIT2A
Aircraft B738/M-SDE2E3FGHIRWXY/LB1

Departure

Time 2026-04-16 18:54
Airport Simferopol International Airport (UKFF)

Arrival

Time 2026-04-16 21:27
Airport Innsbruck Airport (LOWI)
Time Latitude Longitude Altitude Speed Heading
2026-04-16 18:32 45.03480 33.98032 626 ft 0 kts 14°
2026-04-16 18:45 45.03469 33.98028 628 ft 4 kts 11°
2026-04-16 18:46 45.03442 33.98023 623 ft 4 kts 360°
2026-04-16 18:46 45.03416 33.98027 624 ft 4 kts 337°
2026-04-16 18:46 45.03398 33.98047 622 ft 2 kts 285°
2026-04-16 18:46 45.03397 33.98050 623 ft 0 kts 283°
2026-04-16 18:51 45.03398 33.98047 623 ft 2 kts 283°
2026-04-16 18:51 45.03409 33.97980 618 ft 10 kts 284°
2026-04-16 18:51 45.03430 33.97863 617 ft 14 kts 284°
2026-04-16 18:51 45.03458 33.97704 617 ft 19 kts 284°
2026-04-16 18:52 45.03493 33.97505 616 ft 23 kts 284°
2026-04-16 18:52 45.03528 33.97299 617 ft 24 kts 283°
2026-04-16 18:52 45.03543 33.97092 622 ft 13 kts 281°
2026-04-16 18:52 45.03580 33.97005 620 ft 11 kts 333°
2026-04-16 18:53 45.03584 33.97002 622 ft 0 kts 338°
2026-04-16 18:53 45.03596 33.96996 620 ft 7 kts 340°
2026-04-16 18:53 45.03675 33.96959 620 ft 17 kts 342°
2026-04-16 18:53 45.03800 33.96908 617 ft 19 kts 355°
2026-04-16 18:54 45.03930 33.96934 628 ft 24 kts 12°
2026-04-16 18:54 45.04387 33.97090 611 ft 110 kts 13°
2026-04-16 18:54 45.05379 33.97429 651 ft 177 kts 14°
2026-04-16 18:54 45.06621 33.97888 1408 ft 192 kts 16°
2026-04-16 18:55 45.07862 33.98397 2705 ft 177 kts 19°
2026-04-16 18:55 45.09024 33.98954 3671 ft 184 kts 20°
2026-04-16 18:55 45.10342 33.99592 3999 ft 215 kts 20°
2026-04-16 18:55 45.11846 34.00328 4286 ft 242 kts 20°
2026-04-16 18:56 45.13517 34.01151 4713 ft 262 kts 20°
2026-04-16 18:56 45.15251 34.02006 5634 ft 266 kts 19°
2026-04-16 18:56 45.16991 34.02866 6689 ft 267 kts 19°
2026-04-16 18:56 45.18766 34.03744 7601 ft 272 kts 18°
2026-04-16 18:57 45.20570 34.04635 8491 ft 277 kts 18°
2026-04-16 18:57 45.22409 34.05543 9399 ft 282 kts 17°
2026-04-16 18:57 45.24281 34.06466 10293 ft 287 kts 17°
2026-04-16 18:58 45.28326 34.08445 11004 ft 333 kts 17°
2026-04-16 18:58 45.30643 34.09278 11293 ft 352 kts
2026-04-16 18:58 45.33043 34.08890 11968 ft 355 kts 340°
2026-04-16 18:58 45.35224 34.07278 12825 ft 354 kts 323°
2026-04-16 18:59 45.37181 34.05101 13694 ft 357 kts 319°
2026-04-16 18:59 45.39100 34.02820 14439 ft 361 kts 319°
2026-04-16 18:59 45.41027 34.00496 15183 ft 364 kts 319°
2026-04-16 18:59 45.42938 33.98178 15941 ft 366 kts 319°
2026-04-16 19:00 45.44887 33.95805 16699 ft 369 kts 319°
2026-04-16 19:00 45.46848 33.93408 17438 ft 372 kts 319°
2026-04-16 19:00 45.48806 33.90980 18151 ft 375 kts 316°
2026-04-16 19:00 45.50650 33.88328 18805 ft 378 kts 313°
2026-04-16 19:01 45.52404 33.85584 19418 ft 380 kts 311°
2026-04-16 19:01 45.54171 33.82756 20049 ft 382 kts 311°
2026-04-16 19:01 45.55942 33.79927 20689 ft 384 kts 312°
2026-04-16 19:01 45.57734 33.77087 21302 ft 386 kts 312°
2026-04-16 19:02 45.59545 33.74239 21891 ft 388 kts 313°
2026-04-16 19:02 45.61373 33.71379 22478 ft 391 kts 313°
2026-04-16 19:02 45.63218 33.68502 23060 ft 393 kts 313°
2026-04-16 19:02 45.65073 33.65615 23607 ft 395 kts 313°
2026-04-16 19:03 45.66941 33.62707 24091 ft 398 kts 313°
2026-04-16 19:03 45.68798 33.59815 24512 ft 401 kts 313°
2026-04-16 19:03 45.70700 33.56849 24913 ft 404 kts 314°
2026-04-16 19:03 45.72598 33.53886 25402 ft 404 kts 314°
2026-04-16 19:04 45.74507 33.50904 25818 ft 407 kts 314°
2026-04-16 19:04 45.76424 33.47905 26199 ft 410 kts 314°
2026-04-16 19:04 45.78357 33.44877 26578 ft 412 kts 314°
2026-04-16 19:04 45.80300 33.41832 26960 ft 415 kts 314°
2026-04-16 19:05 45.82250 33.38770 27346 ft 417 kts 314°
2026-04-16 19:05 45.84213 33.35685 27699 ft 419 kts 314°
2026-04-16 19:05 45.86184 33.32584 28037 ft 422 kts 314°
2026-04-16 19:05 45.88165 33.29464 28349 ft 425 kts 314°
2026-04-16 19:06 45.90137 33.26354 28658 ft 427 kts 314°
2026-04-16 19:06 45.92148 33.23178 28990 ft 429 kts 314°
2026-04-16 19:06 45.94161 33.19996 29370 ft 430 kts 314°
2026-04-16 19:06 45.96168 33.16818 29853 ft 429 kts 314°
2026-04-16 19:07 45.98165 33.13654 30364 ft 426 kts 314°
2026-04-16 19:07 46.00153 33.10499 30756 ft 425 kts 314°
2026-04-16 19:07 46.02140 33.07344 31143 ft 424 kts 314°
2026-04-16 19:07 46.04113 33.04206 31538 ft 423 kts 314°
2026-04-16 19:08 46.06083 33.01071 31955 ft 421 kts 314°
2026-04-16 19:08 46.08045 32.97946 32351 ft 420 kts 314°
2026-04-16 19:08 46.09962 32.94785 32726 ft 420 kts 309°
2026-04-16 19:08 46.11543 32.91228 33098 ft 422 kts 301°
2026-04-16 19:09 46.12792 32.87389 33498 ft 423 kts 295°
2026-04-16 19:09 46.13677 32.83318 33850 ft 427 kts 287°
2026-04-16 19:09 46.14298 32.79131 34204 ft 427 kts 286°
2026-04-16 19:09 46.14876 32.74983 34480 ft 427 kts 285°
2026-04-16 19:10 46.15452 32.70782 34858 ft 424 kts 285°
2026-04-16 19:10 46.16027 32.66612 35135 ft 424 kts 285°
2026-04-16 19:10 46.16611 32.62435 35370 ft 425 kts 285°
2026-04-16 19:10 46.17202 32.58246 35587 ft 426 kts 285°
2026-04-16 19:11 46.17796 32.54056 35830 ft 426 kts 285°
2026-04-16 19:11 46.18383 32.49924 36109 ft 425 kts 285°
2026-04-16 19:11 46.18985 32.45679 36199 ft 428 kts 285°
2026-04-16 19:12 46.20174 32.37279 36202 ft 430 kts 285°
2026-04-16 19:12 46.21298 32.29270 36200 ft 423 kts 285°
2026-04-16 19:12 46.21818 32.25547 35517 ft 421 kts 283°
2026-04-16 19:13 46.22392 32.21441 36329 ft 418 kts 284°
2026-04-16 19:13 46.23550 32.13126 36222 ft 425 kts 285°
2026-04-16 19:14 46.24705 32.04776 36217 ft 426 kts 284°
2026-04-16 19:14 46.25860 31.96364 36199 ft 427 kts 284°
2026-04-16 19:15 46.27011 31.87937 36212 ft 426 kts 284°
2026-04-16 19:15 46.28146 31.79584 36209 ft 425 kts 284°
2026-04-16 19:16 46.29280 31.71187 36208 ft 424 kts 284°
2026-04-16 19:16 46.30404 31.62819 36200 ft 423 kts 284°
2026-04-16 19:17 46.31513 31.54518 36205 ft 422 kts 284°
2026-04-16 19:17 46.32610 31.46180 36212 ft 421 kts 283°
2026-04-16 19:18 46.33690 31.37849 36210 ft 421 kts 283°
2026-04-16 19:18 46.34764 31.29519 36209 ft 420 kts 283°
2026-04-16 19:19 46.35834 31.21188 36209 ft 420 kts 283°
2026-04-16 19:19 46.36898 31.12853 36204 ft 421 kts 283°
2026-04-16 19:20 46.37951 31.04553 36207 ft 421 kts 283°
2026-04-16 19:20 46.39004 30.96202 36206 ft 421 kts 283°
2026-04-16 19:21 46.40051 30.87856 36206 ft 421 kts 283°
2026-04-16 19:21 46.41088 30.79529 36206 ft 422 kts 283°
2026-04-16 19:22 46.42126 30.71148 36207 ft 422 kts 282°
2026-04-16 19:22 46.43010 30.64181 36202 ft 421 kts 284°
2026-04-16 19:23 46.44527 30.54539 36203 ft 421 kts 285°
2026-04-16 19:23 46.45645 30.47626 36203 ft 421 kts 285°
2026-04-16 19:24 46.46941 30.39405 36209 ft 420 kts 285°
2026-04-16 19:24 46.48222 30.31126 36195 ft 420 kts 284°
2026-04-16 19:25 46.49492 30.22845 36182 ft 420 kts 284°
2026-04-16 19:25 46.50749 30.14615 36195 ft 419 kts 284°
2026-04-16 19:26 46.52006 30.06338 36204 ft 419 kts 284°
2026-04-16 19:26 46.53260 29.98055 36198 ft 420 kts 284°
2026-04-16 19:27 46.54703 29.89845 36191 ft 418 kts 292°
2026-04-16 19:27 46.57345 29.82395 36202 ft 417 kts 300°
2026-04-16 19:28 46.60245 29.75069 36199 ft 417 kts 300°
2026-04-16 19:28 46.63106 29.67758 36198 ft 418 kts 300°
2026-04-16 19:29 46.65963 29.60382 36191 ft 418 kts 299°
2026-04-16 19:29 46.68816 29.52979 36195 ft 419 kts 299°
2026-04-16 19:30 46.71664 29.45566 36193 ft 419 kts 299°
2026-04-16 19:30 46.74508 29.38145 36203 ft 419 kts 299°
2026-04-16 19:31 46.77328 29.30766 36193 ft 418 kts 299°
2026-04-16 19:31 46.80153 29.23353 36189 ft 417 kts 299°
2026-04-16 19:32 46.82970 29.15945 36184 ft 416 kts 299°
2026-04-16 19:32 46.85774 29.08547 36185 ft 415 kts 299°
2026-04-16 19:33 46.88570 29.01150 36186 ft 415 kts 299°
2026-04-16 19:33 46.91345 28.93807 36188 ft 414 kts 300°
2026-04-16 19:34 46.94898 28.87187 36181 ft 415 kts 315°
2026-04-16 19:34 46.99158 28.81524 36183 ft 415 kts 316°
2026-04-16 19:35 47.03417 28.75821 36182 ft 415 kts 315°
2026-04-16 19:35 47.07661 28.70067 36179 ft 415 kts 315°
2026-04-16 19:36 47.11666 28.64617 36171 ft 415 kts 315°
2026-04-16 19:36 47.15904 28.58837 36174 ft 415 kts 315°
2026-04-16 19:37 47.20142 28.53044 36166 ft 416 kts 315°
2026-04-16 19:37 47.24333 28.47300 36175 ft 416 kts 315°
2026-04-16 19:38 47.28571 28.41480 36160 ft 416 kts 314°
2026-04-16 19:38 47.32805 28.35650 36164 ft 416 kts 314°
2026-04-16 19:39 47.37038 28.29809 36164 ft 416 kts 314°
2026-04-16 19:39 47.41275 28.23949 36160 ft 417 kts 314°
2026-04-16 19:40 47.45476 28.18124 36157 ft 416 kts 313°
2026-04-16 19:40 47.47308 28.14850 36151 ft 412 kts 299°
2026-04-16 19:40 47.48528 28.11032 36165 ft 410 kts 289°
2026-04-16 19:40 47.49268 28.06960 36150 ft 411 kts 278°
2026-04-16 19:41 47.49584 28.02768 36167 ft 410 kts 277°
2026-04-16 19:41 47.50161 27.94343 36156 ft 411 kts 276°
2026-04-16 19:42 47.50750 27.85919 36160 ft 412 kts 277°
2026-04-16 19:42 47.51352 27.77495 36155 ft 412 kts 277°
2026-04-16 19:43 47.51956 27.69058 36153 ft 412 kts 276°
2026-04-16 19:43 47.52553 27.60675 36153 ft 412 kts 276°
2026-04-16 19:44 47.53148 27.52245 36142 ft 411 kts 276°
2026-04-16 19:44 47.53734 27.43827 36145 ft 411 kts 276°
2026-04-16 19:45 47.54315 27.35406 36151 ft 410 kts 276°
2026-04-16 19:45 47.54888 27.26997 36148 ft 410 kts 276°
2026-04-16 19:46 47.55452 27.18641 36133 ft 409 kts 276°
2026-04-16 19:46 47.56012 27.10239 36145 ft 409 kts 276°
2026-04-16 19:47 47.56566 27.01841 36144 ft 410 kts 276°
2026-04-16 19:47 47.57115 26.93424 36148 ft 410 kts 276°
2026-04-16 19:48 47.57655 26.85056 36145 ft 411 kts 275°
2026-04-16 19:48 47.58193 26.76608 36149 ft 411 kts 275°
2026-04-16 19:49 47.58723 26.68197 36155 ft 412 kts 275°
2026-04-16 19:49 47.59249 26.59744 36153 ft 412 kts 275°
2026-04-16 19:50 47.59770 26.51273 36152 ft 412 kts 275°
2026-04-16 19:50 47.60284 26.42811 36173 ft 411 kts 275°
2026-04-16 19:51 47.60788 26.34410 36157 ft 411 kts 275°
2026-04-16 19:51 47.61288 26.25968 36157 ft 410 kts 275°
2026-04-16 19:52 47.61781 26.17545 36159 ft 409 kts 275°
2026-04-16 19:52 47.62263 26.09205 36159 ft 408 kts 275°
2026-04-16 19:53 47.62742 26.00811 36158 ft 408 kts 275°
2026-04-16 19:53 47.63213 25.92431 36154 ft 407 kts 275°
2026-04-16 19:54 47.63679 25.84049 36160 ft 407 kts 274°
2026-04-16 19:54 47.64136 25.75719 36160 ft 408 kts 275°
2026-04-16 19:55 47.64590 25.67316 36169 ft 409 kts 274°
2026-04-16 19:55 47.65040 25.58886 36177 ft 410 kts 274°
2026-04-16 19:56 47.65484 25.50445 36172 ft 411 kts 274°
2026-04-16 19:56 47.65922 25.41990 36172 ft 411 kts 274°
2026-04-16 19:57 47.66353 25.33571 36170 ft 412 kts 274°
2026-04-16 19:57 47.66780 25.25091 36176 ft 412 kts 274°
2026-04-16 19:58 47.67201 25.16616 36178 ft 412 kts 274°
2026-04-16 19:58 47.67615 25.08143 36182 ft 411 kts 274°
2026-04-16 19:59 47.68023 24.99665 36185 ft 411 kts 274°
2026-04-16 19:59 47.68424 24.91203 36175 ft 410 kts 274°
2026-04-16 20:00 47.69010 24.78593 36175 ft 409 kts 274°
2026-04-16 20:00 47.69394 24.70162 36147 ft 408 kts 274°
2026-04-16 20:01 47.69771 24.61748 36174 ft 408 kts 274°
2026-04-16 20:01 47.70142 24.53330 36169 ft 408 kts 273°
2026-04-16 20:02 47.70505 24.44957 36171 ft 408 kts 273°
2026-04-16 20:02 47.70864 24.36531 36167 ft 409 kts 273°
2026-04-16 20:03 47.71217 24.28107 36155 ft 409 kts 273°
2026-04-16 20:03 47.71564 24.19665 36160 ft 409 kts 273°
2026-04-16 20:04 47.71905 24.11230 36151 ft 409 kts 273°
2026-04-16 20:04 47.72239 24.02805 36144 ft 408 kts 273°
2026-04-16 20:05 47.72566 23.94395 36157 ft 408 kts 273°
2026-04-16 20:05 47.72887 23.85989 36143 ft 407 kts 273°
2026-04-16 20:06 47.73200 23.77632 36146 ft 407 kts 272°
2026-04-16 20:06 47.73508 23.69240 36135 ft 407 kts 272°
2026-04-16 20:07 47.73761 23.62246 36139 ft 407 kts 272°
2026-04-16 20:07 47.74108 23.52410 36136 ft 407 kts 272°
2026-04-16 20:08 47.74396 23.44049 36120 ft 407 kts 272°
2026-04-16 20:08 47.74633 23.37057 36151 ft 407 kts 272°
2026-04-16 20:09 47.74912 23.28636 36159 ft 408 kts 272°
2026-04-16 20:09 47.75185 23.20216 36152 ft 409 kts 272°
2026-04-16 20:10 47.75453 23.11773 36155 ft 409 kts 272°
2026-04-16 20:10 47.75714 23.03336 36157 ft 409 kts 272°
2026-04-16 20:11 47.75970 22.94887 36159 ft 409 kts 272°
2026-04-16 20:11 47.76219 22.86440 36167 ft 409 kts 272°
2026-04-16 20:12 47.76462 22.77991 36157 ft 408 kts 272°
2026-04-16 20:12 47.76698 22.69553 36156 ft 408 kts 272°
2026-04-16 20:13 47.76927 22.61163 36156 ft 407 kts 271°
2026-04-16 20:13 47.77142 22.53092 36154 ft 407 kts 271°
2026-04-16 20:14 47.77351 22.44985 36155 ft 406 kts 271°
2026-04-16 20:14 47.77544 22.37322 36150 ft 406 kts 271°
2026-04-16 20:15 47.77748 22.28980 36153 ft 405 kts 271°
2026-04-16 20:15 47.77947 22.20604 36135 ft 405 kts 271°
2026-04-16 20:16 47.78140 22.12225 36152 ft 405 kts 271°
2026-04-16 20:16 47.78327 22.03838 36159 ft 406 kts 271°
2026-04-16 20:17 47.78508 21.95449 36166 ft 406 kts 271°
2026-04-16 20:17 47.78683 21.87079 36158 ft 407 kts 271°
2026-04-16 20:18 47.78852 21.78642 36160 ft 408 kts 271°
2026-04-16 20:18 47.79015 21.70218 36159 ft 408 kts 271°
2026-04-16 20:19 47.79173 21.61784 36160 ft 408 kts 271°
2026-04-16 20:19 47.79323 21.53407 36174 ft 407 kts 271°
2026-04-16 20:20 47.79468 21.44970 36159 ft 407 kts 271°
2026-04-16 20:20 47.79606 21.36549 36160 ft 406 kts 271°
2026-04-16 20:21 47.79737 21.28210 36162 ft 405 kts 271°
2026-04-16 20:21 47.79863 21.19828 36160 ft 404 kts 271°
2026-04-16 20:22 47.79982 21.11465 36159 ft 404 kts 271°
2026-04-16 20:22 47.80095 21.03113 36161 ft 403 kts 270°
2026-04-16 20:23 47.80202 20.94764 36143 ft 403 kts 270°
2026-04-16 20:23 47.80302 20.86471 36159 ft 403 kts 270°
2026-04-16 20:24 47.80397 20.78105 36166 ft 404 kts 270°
2026-04-16 20:24 47.80486 20.69730 36162 ft 405 kts 270°
2026-04-16 20:25 47.80569 20.61322 36166 ft 406 kts 270°
2026-04-16 20:25 47.80646 20.52953 36164 ft 407 kts 270°
2026-04-16 20:26 47.80717 20.44514 36167 ft 408 kts 270°
2026-04-16 20:26 47.80782 20.36069 36167 ft 408 kts 270°
2026-04-16 20:27 47.80842 20.27615 36165 ft 408 kts 270°
2026-04-16 20:27 47.80894 20.19230 36166 ft 408 kts 270°
2026-04-16 20:28 47.80940 20.10783 36168 ft 408 kts 270°
2026-04-16 20:28 47.80981 20.02319 36168 ft 407 kts 270°
2026-04-16 20:29 47.81015 19.93930 36176 ft 407 kts 270°
2026-04-16 20:29 47.81043 19.85506 36171 ft 407 kts 270°
2026-04-16 20:30 47.81065 19.77084 36183 ft 407 kts 270°
2026-04-16 20:30 47.81080 19.68642 36151 ft 407 kts 270°
2026-04-16 20:31 47.81090 19.60263 36169 ft 407 kts 270°
2026-04-16 20:31 47.81093 19.51820 36170 ft 408 kts 270°
2026-04-16 20:32 47.81090 19.43347 36175 ft 408 kts 270°
2026-04-16 20:32 47.81081 19.34944 36179 ft 409 kts 270°
2026-04-16 20:33 47.81066 19.26469 36180 ft 410 kts 270°
2026-04-16 20:33 47.81045 19.17970 36188 ft 411 kts 270°
2026-04-16 20:34 47.81017 19.09445 36197 ft 412 kts 270°
2026-04-16 20:34 47.80983 19.00912 36192 ft 412 kts 269°
2026-04-16 20:35 47.80942 18.92370 36197 ft 413 kts 269°
2026-04-16 20:35 47.80897 18.83864 36186 ft 413 kts 270°
2026-04-16 20:36 47.80926 18.75295 36188 ft 414 kts 275°
2026-04-16 20:36 47.82170 18.66992 36211 ft 415 kts 287°
2026-04-16 20:37 47.84043 18.58836 36211 ft 416 kts 287°
2026-04-16 20:37 47.85905 18.50667 36197 ft 417 kts 287°
2026-04-16 20:38 47.87746 18.42463 36194 ft 418 kts 288°
2026-04-16 20:38 47.89568 18.34275 36201 ft 418 kts 287°
2026-04-16 20:39 47.91395 18.26025 36201 ft 419 kts 287°
2026-04-16 20:39 47.93214 18.17773 36201 ft 419 kts 287°
2026-04-16 20:40 47.95030 18.09507 36204 ft 419 kts 287°
2026-04-16 20:40 47.96838 18.01238 36203 ft 419 kts 288°
2026-04-16 20:41 47.98644 17.92955 36204 ft 419 kts 288°
2026-04-16 20:41 48.00433 17.84714 36205 ft 419 kts 288°
2026-04-16 20:42 48.02229 17.76405 36208 ft 419 kts 288°
2026-04-16 20:42 48.04015 17.68112 36207 ft 419 kts 288°
2026-04-16 20:43 48.05784 17.59862 36208 ft 419 kts 288°
2026-04-16 20:43 48.07558 17.51555 36209 ft 419 kts 288°
2026-04-16 20:44 48.09326 17.43243 36212 ft 419 kts 288°
2026-04-16 20:44 48.11088 17.34926 36212 ft 419 kts 288°
2026-04-16 20:45 48.12835 17.26649 36205 ft 419 kts 288°
2026-04-16 20:45 48.14583 17.18329 36213 ft 419 kts 288°
2026-04-16 20:46 48.16331 17.09982 36211 ft 419 kts 288°
2026-04-16 20:46 48.17988 17.01670 36205 ft 419 kts 282°
2026-04-16 20:47 48.18319 16.92938 36208 ft 422 kts 267°
2026-04-16 20:47 48.17237 16.84276 36212 ft 424 kts 259°
2026-04-16 20:48 48.15880 16.75660 36214 ft 424 kts 259°
2026-04-16 20:48 48.14530 16.67061 36212 ft 424 kts 259°
2026-04-16 20:49 48.13204 16.58500 36213 ft 424 kts 259°
2026-04-16 20:49 48.11874 16.49878 36209 ft 425 kts 259°
2026-04-16 20:50 48.10544 16.41290 36205 ft 424 kts 259°
2026-04-16 20:50 48.09205 16.32691 36229 ft 425 kts 259°
2026-04-16 20:51 48.07857 16.24079 36233 ft 425 kts 259°
2026-04-16 20:51 48.06501 16.15463 36243 ft 425 kts 259°
2026-04-16 20:52 48.05146 16.06894 36247 ft 426 kts 259°
2026-04-16 20:52 48.03775 15.98278 36251 ft 426 kts 259°
2026-04-16 20:53 48.02398 15.89665 36245 ft 426 kts 259°
2026-04-16 20:53 48.01012 15.81043 36261 ft 426 kts 259°
2026-04-16 20:54 47.99631 15.72492 36253 ft 427 kts 259°
2026-04-16 20:54 47.98233 15.63885 36259 ft 427 kts 259°
2026-04-16 20:55 47.96827 15.55272 36271 ft 427 kts 259°
2026-04-16 20:55 47.95649 15.48085 36260 ft 428 kts 259°
2026-04-16 20:56 47.94227 15.39457 36259 ft 428 kts 259°
2026-04-16 20:56 47.92798 15.30832 36269 ft 428 kts 259°
2026-04-16 20:57 47.91361 15.22192 36272 ft 428 kts 259°
2026-04-16 20:57 47.89929 15.13630 36282 ft 428 kts 259°
2026-04-16 20:58 47.88481 15.05019 36271 ft 428 kts 259°
2026-04-16 20:58 47.87026 14.96410 36273 ft 428 kts 259°
2026-04-16 20:59 47.85566 14.87813 36279 ft 427 kts 259°
2026-04-16 20:59 47.84114 14.79298 36284 ft 427 kts 259°
2026-04-16 21:00 47.82643 14.70727 36281 ft 426 kts 258°
2026-04-16 21:00 47.81167 14.62168 36291 ft 426 kts 258°
2026-04-16 21:01 47.79697 14.53664 36289 ft 427 kts 258°
2026-04-16 21:01 47.78211 14.45120 36288 ft 427 kts 258°
2026-04-16 21:02 47.76714 14.36562 36284 ft 427 kts 258°
2026-04-16 21:03 47.74470 14.23804 36286 ft 427 kts 258°
2026-04-16 21:03 47.72958 14.15259 36288 ft 427 kts 258°
2026-04-16 21:04 47.71441 14.06728 36292 ft 427 kts 258°
2026-04-16 21:04 47.69917 13.98189 35916 ft 433 kts 258°
2026-04-16 21:04 47.69143 13.93868 35364 ft 431 kts 258°
2026-04-16 21:05 47.68371 13.89580 34759 ft 429 kts 258°
2026-04-16 21:05 47.67612 13.85367 34118 ft 428 kts 258°
2026-04-16 21:05 47.66841 13.81100 33373 ft 427 kts 258°
2026-04-16 21:05 47.66069 13.76841 32722 ft 425 kts 258°
2026-04-16 21:06 47.65305 13.72638 32238 ft 419 kts 258°
2026-04-16 21:06 47.64551 13.68493 31767 ft 414 kts 258°
2026-04-16 21:06 47.63804 13.64397 31322 ft 408 kts 258°
2026-04-16 21:06 47.63065 13.60357 30875 ft 404 kts 258°
2026-04-16 21:07 47.62333 13.56357 30408 ft 399 kts 258°
2026-04-16 21:07 47.61610 13.52411 29914 ft 394 kts 258°
2026-04-16 21:07 47.60902 13.48562 29464 ft 389 kts 258°
2026-04-16 21:07 47.60194 13.44717 29016 ft 384 kts 258°
2026-04-16 21:08 47.59494 13.40924 28571 ft 379 kts 258°
2026-04-16 21:08 47.58799 13.37160 28126 ft 380 kts 258°
2026-04-16 21:08 47.58091 13.33322 27678 ft 393 kts 258°
2026-04-16 21:08 47.57361 13.29369 27207 ft 398 kts 258°
2026-04-16 21:09 47.56630 13.25442 26742 ft 393 kts 258°
2026-04-16 21:09 47.55904 13.21563 26188 ft 389 kts 258°
2026-04-16 21:09 47.55188 13.17733 25507 ft 391 kts 258°
2026-04-16 21:09 47.54463 13.13870 24978 ft 388 kts 258°
2026-04-16 21:10 47.53744 13.10044 24510 ft 383 kts 257°
2026-04-16 21:10 47.53029 13.06247 24051 ft 379 kts 257°
2026-04-16 21:10 47.52325 13.02509 23567 ft 375 kts 257°
2026-04-16 21:10 47.51627 12.98816 23080 ft 370 kts 257°
2026-04-16 21:11 47.50938 12.95173 22638 ft 365 kts 257°
2026-04-16 21:11 47.50259 12.91589 22210 ft 360 kts 257°
2026-04-16 21:11 47.49586 12.88044 21758 ft 356 kts 257°
2026-04-16 21:11 47.48922 12.84554 21351 ft 351 kts 257°
2026-04-16 21:12 47.48280 12.81183 20933 ft 348 kts 257°
2026-04-16 21:12 47.47628 12.77808 20534 ft 345 kts 257°
2026-04-16 21:12 47.46977 12.74397 20139 ft 344 kts 257°
2026-04-16 21:12 47.46329 12.70995 19726 ft 344 kts 257°
2026-04-16 21:13 47.45673 12.67549 19342 ft 354 kts 257°
2026-04-16 21:13 47.44999 12.64021 18906 ft 358 kts 257°
2026-04-16 21:13 47.44319 12.60489 18465 ft 356 kts 257°
2026-04-16 21:13 47.43641 12.56987 17987 ft 352 kts 257°
2026-04-16 21:14 47.42972 12.53531 17542 ft 348 kts 257°
2026-04-16 21:14 47.42309 12.50115 17118 ft 344 kts 257°
2026-04-16 21:14 47.41655 12.46743 16702 ft 339 kts 256°
2026-04-16 21:14 47.41010 12.43417 16300 ft 335 kts 256°
2026-04-16 21:15 47.40371 12.40133 15904 ft 331 kts 256°
2026-04-16 21:15 47.39736 12.36887 15504 ft 327 kts 256°
2026-04-16 21:15 47.39380 12.33625 15160 ft 319 kts 274°
2026-04-16 21:15 47.39628 12.30384 14901 ft 319 kts 279°
2026-04-16 21:16 47.39957 12.27096 14600 ft 330 kts 279°
2026-04-16 21:16 47.40301 12.23708 14310 ft 335 kts 279°
2026-04-16 21:16 47.40639 12.20300 13956 ft 336 kts 278°
2026-04-16 21:16 47.40966 12.16909 13602 ft 330 kts 278°
2026-04-16 21:17 47.41280 12.13590 13310 ft 323 kts 278°
2026-04-16 21:17 47.41585 12.10337 12998 ft 316 kts 278°
2026-04-16 21:17 47.41881 12.07158 12703 ft 309 kts 278°
2026-04-16 21:17 47.42167 12.04074 12437 ft 297 kts 278°
2026-04-16 21:18 47.42439 12.01122 12150 ft 283 kts 278°
2026-04-16 21:18 47.42698 11.98280 11943 ft 277 kts 277°
2026-04-16 21:18 47.42566 11.95512 11665 ft 275 kts 252°
2026-04-16 21:18 47.41622 11.93089 11456 ft 274 kts 230°
2026-04-16 21:19 47.40148 11.91317 11207 ft 274 kts 213°
2026-04-16 21:19 47.38514 11.89893 10955 ft 271 kts 211°
2026-04-16 21:19 47.36897 11.88497 10716 ft 268 kts 212°
2026-04-16 21:19 47.35292 11.87105 10382 ft 269 kts 212°
2026-04-16 21:20 47.33702 11.85591 9964 ft 272 kts 223°
2026-04-16 21:20 47.32747 11.83259 9684 ft 266 kts 253°
2026-04-16 21:20 47.32228 11.80676 9384 ft 262 kts 254°
2026-04-16 21:20 47.31865 11.78032 8950 ft 265 kts 261°
2026-04-16 21:21 47.31568 11.75340 8538 ft 267 kts 261°
2026-04-16 21:21 47.31280 11.72721 8433 ft 248 kts 261°
2026-04-16 21:21 47.31053 11.70315 8294 ft 227 kts 264°
2026-04-16 21:21 47.30843 11.68081 7949 ft 218 kts 260°
2026-04-16 21:22 47.30554 11.65893 7623 ft 212 kts 258°
2026-04-16 21:22 47.30257 11.63868 7492 ft 193 kts 258°
2026-04-16 21:22 47.29973 11.61960 7100 ft 189 kts 258°
2026-04-16 21:22 47.29697 11.60109 6703 ft 181 kts 257°
2026-04-16 21:23 47.29435 11.58351 6343 ft 169 kts 257°
2026-04-16 21:23 47.29189 11.56694 5910 ft 162 kts 257°
2026-04-16 21:23 47.28954 11.55105 5521 ft 153 kts 257°
2026-04-16 21:23 47.28727 11.53575 5109 ft 158 kts 256°
2026-04-16 21:24 47.28488 11.51960 4699 ft 160 kts 257°
2026-04-16 21:24 47.28253 11.50371 4419 ft 160 kts 256°
2026-04-16 21:24 47.28022 11.48808 4175 ft 157 kts 257°
2026-04-16 21:24 47.27806 11.47340 3928 ft 155 kts 257°
2026-04-16 21:25 47.27575 11.45802 3677 ft 153 kts 257°
2026-04-16 21:25 47.27340 11.44273 3411 ft 153 kts 257°
2026-04-16 21:25 47.27108 11.42741 3124 ft 153 kts 257°
2026-04-16 21:25 47.26888 11.41210 2864 ft 152 kts 258°
2026-04-16 21:26 47.26673 11.39690 2584 ft 152 kts 258°
2026-04-16 21:26 47.26468 11.38182 2354 ft 148 kts 259°
2026-04-16 21:26 47.26274 11.36690 2094 ft 150 kts 261°
2026-04-16 21:26 47.26107 11.35190 1899 ft 142 kts 261°
2026-04-16 21:27 47.25973 11.33940 1903 ft 96 kts 261°
2026-04-16 21:27 47.25907 11.33326 1899 ft 27 kts 261°
2026-04-16 21:27 47.25844 11.33169 1899 ft 13 kts 252°
2026-04-16 21:27 47.25863 11.33081 1898 ft 9 kts 352°
2026-04-16 21:28 47.25890 11.33161 1899 ft 11 kts 84°
2026-04-16 21:28 47.25905 11.33319 1893 ft 18 kts 81°
2026-04-16 21:28 47.25922 11.33501 1891 ft 18 kts 85°
2026-04-16 21:28 47.25917 11.33662 1898 ft 15 kts 121°
2026-04-16 21:29 47.25856 11.33787 1903 ft 15 kts 127°
2026-04-16 21:29 47.25798 11.33908 1899 ft 14 kts 122°
2026-04-16 21:29 47.25769 11.34040 1895 ft 14 kts 86°
2026-04-16 21:29 47.25783 11.34175 1894 ft 14 kts 81°
2026-04-16 21:30 47.25800 11.34335 1903 ft 18 kts 81°
2026-04-16 21:30 47.25823 11.34538 1895 ft 23 kts 81°
2026-04-16 21:30 47.25847 11.34767 1896 ft 20 kts 81°
2026-04-16 21:30 47.25871 11.34980 1900 ft 23 kts 81°
2026-04-16 21:31 47.25891 11.35160 1900 ft 12 kts 81°
2026-04-16 21:31 47.25845 11.35234 1896 ft 9 kts 173°
2026-04-16 21:31 47.25841 11.35235 1895 ft 0 kts 173°